PST,Max TemperatureF,Mean TemperatureF,Min TemperatureF,Max Dew PointF,MeanDew PointF,Min DewpointF,Max Humidity, Mean Humidity, Min Humidity, Max Sea Level PressureIn, Mean Sea Level PressureIn, Min Sea Level PressureIn, Max VisibilityMiles, Mean VisibilityMiles, Min VisibilityMiles, Max Wind SpeedMPH, Mean Wind SpeedMPH, Max Gust SpeedMPH,PrecipitationIn, CloudCover, Events, WindDirDegrees
2013-1-1,19,3,-14,8,-3,-17,91,77,62,30.74,30.63,30.45,10,10,9,14,4,18,0.00,0,,88
2013-1-2,17,2,-14,7,-7,-19,91,79,67,30.75,30.66,30.41,10,9,2,13,4,15,0.00,0,,89
2013-1-3,20,2,-16,7,-8,-19,95,76,56,30.65,30.58,30.32,10,10,9,10,3,13,0.00,0,,105
2013-1-4,20,4,-13,8,-4,-18,92,77,61,30.70,30.61,30.55,10,10,10,9,3,10,0.00,0,,79
2013-1-5,22,6,-10,11,2,-14,91,74,57,30.61,30.47,30.27,10,10,9,13,3,14,0.00,0,,66
2013-1-6,26,12,-2,15,8,-4,95,79,62,30.37,30.26,30.18,10,10,9,9,3,12,0.00,2,,217
2013-1-7,30,12,-7,22,9,-10,95,79,63,30.49,30.40,30.23,10,9,6,8,2,21,0.00,3,,38
2013-1-8,37,23,9,25,17,7,96,76,56,30.44,30.38,30.27,10,8,4,14,3,17,0.00,2,,62
2013-1-9,36,22,7,27,15,3,92,81,69,30.35,30.07,29.65,10,6,0,14,6,17,0.01,4,Fog-Rain,73
2013-1-10,33,24,15,29,19,11,92,78,63,29.96,29.83,29.64,10,5,0,24,7,30,0.14,8,Fog-Snow,290
2013-1-11,27,11,-6,15,7,-10,92,74,55,30.26,30.10,29.97,10,10,10,16,4,20,0.01,4,,263
2013-1-12,19,2,-15,6,-8,-20,92,74,56,30.48,30.36,30.16,10,10,10,10,3,10,0.00,1,,151
2013-1-13,14,-3,-21,5,-13,-24,86,75,63,30.61,30.40,30.15,10,7,0,9,3,10,0.00,4,Fog,123
2013-1-14,17,-2,-21,7,-9,-26,83,71,59,30.75,30.59,30.32,10,10,2,14,3,16,0.00,4,,133
2013-1-15,25,9,-7,8,0,-9,95,73,50,30.92,30.79,30.66,10,10,10,8,2,9,0.00,0,,164
2013-1-16,22,4,-14,10,-3,-18,91,74,57,30.96,30.87,30.80,10,10,10,13,4,15,0.00,0,,85
2013-1-17,23,4,-15,11,-7,-18,95,77,59,30.89,30.72,30.56,10,8,1,12,4,,0.00,1,,115
2013-1-18,23,6,-12,11,-8,-17,91,77,62,30.77,30.58,30.45,10,5,0,9,4,12,0.00,2,Fog,125
2013-1-19,26,7,-12,12,-8,-15,95,75,55,30.78,30.60,30.47,10,6,0,13,4,16,0.01,3,Fog,125
2013-1-20,27,7,-14,11,-5,-17,91,73,55,30.78,30.66,30.47,10,9,1,13,2,24,0.00,0,,113
2013-1-21,29,10,-9,13,-1,-13,95,73,50,30.70,30.61,30.52,10,10,8,9,3,10,0.00,0,,87
2013-1-22,29,10,-9,15,4,-12,91,75,58,30.56,30.45,30.32,10,10,7,13,5,15,0.00,0,,68
2013-1-23,32,17,2,22,14,0,88,73,58,30.34,30.28,30.22,10,10,10,16,7,21,0.00,2,,55
2013-1-24,42,36,29,32,30,22,92,84,75,30.31,30.27,30.20,10,8,4,8,4,,0.03,7,Rain,43
2013-1-25,41,36,31,35,33,30,100,90,79,30.28,30.16,30.03,9,4,0,9,3,13,T,7,Fog-Rain,53
2013-1-26,48,39,29,37,33,27,100,83,66,30.05,29.92,29.81,10,5,0,15,4,18,0.02,6,Fog-Rain,348
2013-1-27,35,26,17,27,23,14,92,77,61,30.11,29.97,29.86,10,9,2,18,7,24,0.04,7,Snow,325
2013-1-28,32,23,14,27,22,11,88,80,72,30.17,30.10,30.03,10,7,1,13,6,20,0.02,7,Snow,183
2013-1-29,39,35,31,30,29,27,92,78,64,30.38,30.18,30.03,10,8,2,17,8,24,0.10,8,Snow,253
2013-1-30,47,39,30,32,31,29,89,74,58,30.41,30.38,30.34,10,10,10,15,6,20,0.00,7,,191
2013-1-31,49,40,24,35,30,23,100,78,56,30.43,30.34,30.26,10,10,10,12,5,14,0.00,1,,105